Regional Weather Roundup
Issued by NWS

Home | Current Version | Previous Version | Graphics & Text | Print | Product List | Glossary On
Versions: 1 2 3 4 5 6 7 8 9 10 11 12 13 14 15 16 17 18 19 20 21 22 23 24 25 26 27 28 29 30 31 32 33 34 35 36 37 38 39 40 41 42 43 44 45 46 47 48 49 50
000
ASUS43 KDMX 201907
RWRIA

WEATHER ROUNDUP FOR IOWA
NATIONAL WEATHER SERVICE DES MOINES IA
100 PM CST SAT DEC 20 2014

NOTE: "FAIR" INDICATES FEW OR NO CLOUDS BELOW 12,000 FEET WITH NO
SIGNIFICANT WEATHER AND/OR OBSTRUCTIONS TO VISIBILITY.

* - THESE STATIONS ARE NOT NWS STATIONS...THUS NOT UNDER NWS
QUALITY CONTROL.  THEY ALSO DO NOT REPORT WEATHER SUCH
AS PRECIPITATION OR FOG.

IAZ001>003-012>014-020>022-031>034-043>046-202000-
   NORTHWEST IOWA

CITY           SKY/WX    TMP DP  RH WIND       PRES   REMARKS
CARROLL *      CLOUDY    34  32  93 S9        30.09F WCI  26
CHEROKEE *     CLOUDY    32  32 100 S8        30.08F FOG     WCI  25
DENISON *      CLOUDY    32  32 100 SW9       30.06F FOG     WCI  24
LE MARS *      CLOUDY    32  30  93 S7        30.06F WCI  26
ORANGE CITY *  CLOUDY    32  28  86 S7        30.05F FOG     WCI  26
SHELDON *      CLOUDY    30  32 100 S13       30.05F FOG     WCI  20
SIOUX CITY     CLOUDY    34  30  85 S8        30.07F WCI  27
SPENCER        CLOUDY    32  28  85 S12       30.08F WCI  23
STORM LAKE *   CLOUDY    32  30  93 S8        30.08S FOG     WCI  25
$$

IAZ055>058-069>071-079>083-090>094-202000-
   SOUTHWEST IOWA

CITY           SKY/WX    TMP DP  RH WIND       PRES   REMARKS
ATLANTIC *     CLOUDY    34  32  93 S8        30.08F WCI  27
AUDUBON *      CLOUDY    34  28  80 S6        30.09F HAZE    WCI  29
CLARINDA *     CLOUDY    36  34  93 S7        30.11F FOG     WCI  30
COUNCIL BLFS * CLOUDY    32  32 100 S7        30.06F FOG     WCI  26
CRESTON *      CLOUDY    34  34 100 S10       30.10F FOG     WCI  26
HARLAN  *      CLOUDY    34  34 100 S10       30.11F WCI  26
LAMONI         CLOUDY    34  33  96 S8        30.12F FOG     WCI  27
RED OAK *      CLOUDY    34  34 100 S8        30.10F FOG     WCI  27
SHENANDOAH *   CLOUDY    34  34 100 S8        30.10F FOG     WCI  27
$$

IAZ047>049-059>061-072>074-084-202000-
   CENTRAL IOWA

CITY           SKY/WX    TMP DP  RH WIND       PRES   REMARKS
AMES           CLOUDY    32  30  92 SE8       30.13F FOG     WCI  25
ANKENY *       CLOUDY    34  32  93 SE7       30.14F FOG     WCI  28
CHARITON *     CLOUDY    34  34 100 S8        30.13F FOG     WCI  27
DES MOINES     CLOUDY    34  31  88 SE7       30.14F FOG     WCI  28
GRINNELL*      CLOUDY    32  32 100 SE7       30.15F FOG     WCI  26
KNOXVILLE *    CLOUDY    34  32  93 S6        30.13F FOG     WCI  29
MARSHALLTOWN   CLOUDY    33  29  85 E6        30.14F WCI  28
PELLA *        CLOUDY    34  34 100 SE5       30.16F FOG     WCI  30
PERRY *        CLOUDY    34  34 100 S9        30.11F FOG     WCI  26
$$

IAZ004>006-015-016-023>025-035-036-202000-
   NORTH CENTRAL IOWA

CITY           SKY/WX    TMP DP  RH WIND       PRES   REMARKS
ALGONA *       CLOUDY    32  30  93 S8        30.11F WCI  25
CLARION *      CLOUDY    32  32 100 S9        30.12F WCI  24
ESTHERVILLE    CLOUDY    30  28  92 S9        30.07F WCI  22
FORT DODGE *   CLOUDY    32  28  86 S8        30.12S WCI  25
MASON CITY     CLOUDY    30  28  92 S9        30.14F WCI  22
FOREST CITY *  CLOUDY    32  27  80 S3        30.12S
IOWA FALLS *   CLOUDY    32  28  86 SE7       30.14F WCI  26
$$

IAZ007>011-017>019-026>030-037>042-050>054-066-202000-
   NORTHEAST IOWA

CITY           SKY/WX    TMP DP  RH WIND       PRES   REMARKS
CEDAR RAPIDS   CLOUDY    32  30  92 SE6       30.17F FOG     WCI  26
CHARLES CITY * CLOUDY    32  32 100 S8        30.15F FOG     WCI  25
CLINTON *      CLOUDY    32  25  74 S9        30.25S WCI  24
DECORAH *      CLOUDY    30  30 100 S6        30.16F FOG     WCI  24
DUBUQUE        CLOUDY    31  25  78 S9        30.19F HAZE    WCI  23
MONTICELLO *   CLOUDY    30  32 100 SE8       30.19F FOG     WCI  23
OELWEIN *      CLOUDY    32  30  93 S9        30.17F FOG     WCI  24
WATERLOO       CLOUDY    32  31  96 SE6       30.16F FOG     WCI  26
$$

IAZ064-065-067-068-078-202000-
   EAST CENTRAL IOWA

CITY           SKY/WX    TMP DP  RH WIND       PRES   REMARKS
DAVENPORT      CLOUDY    33  25  72 S9        30.22F WCI  25
IOWA CITY      CLOUDY    33  29  85 SE8       30.21F FOG     WCI  26
MT. PLEASANT * LGT SNOW  32  32 100 SE6       30.20F WCI  26
MUSCATINE *    CLOUDY    34  28  80 S6        30.22F HAZE    WCI  29
QUAD CITIES    CLOUDY    34  26  72 SE7       30.22F WCI  28
$$

IAZ062-063-075>077-085>089-095>099-202000-
   SOUTHEAST IOWA

CITY           SKY/WX    TMP DP  RH WIND       PRES   REMARKS
BURLINGTON     CLOUDY    35  30  82 S3        30.20F HAZE
FAIRFIELD *    CLOUDY    34  32  93 S6        30.18F FOG     WCI  29
FORT MADISON * LGT RAIN  36  34  93 SE5       30.20F WCI  32
KEOKUK *       MIX PCPN  36  34  93 S5        30.20F WCI  32
OSKALOOSA *    CLOUDY    34  32  93 SE7       30.16F FOG     WCI  28
CENTERVILLE *  CLOUDY    34  34 100 S7        30.16F WCI  28
OTTUMWA        CLOUDY    35  32  88 SE6       30.16F FOG     WCI  30
WASHINGTON *   CLOUDY    34  34 100 SE7       30.19F FOG     WCI  28
$$

ABBREVIATIONS USED IN REMARKS
   TC - TEMPERATURES IN CELSIUS
  WCI - WIND CHILL INDEX
   HX - HEAT INDEX
  VSB - VISIBILITY
$$




USA.gov is the U.S. government's official web portal to all federal, state and local government web resources and services.